www.pogodaiklimat.ru

Погода и климат >> Архив погоды >> Самоа >> Togitogiga


ПОГОДА в Togitogiga

  • Прогноз погоды в Togitogiga
  • Монитор погоды в Togitogiga
  • Климат города

АРХИВ ПОГОДЫ в Togitogiga

Время (UTC), дата Ветер
(напр.,м/с)
 
Видим.   Явления Облачность Т
(С)
Тd
(С)
f
(%)
Тe
(С)
Тes
(С)
Комфортность P
(гПа)
Po
(гПа)
Тmin
(С)
Tmax
(С)
R
(мм)
R24
(мм)
S
(см)
09 13.09 штиль 0 н/о н/о +23.3 +23.3 100 +33 +33 очень
душно
1013.8 1013.4
12 13.09 штиль 0 н/о н/о +22.5 +22.5 100 +30 +30 очень
душно
1012.9 1012.5 +32.8
15 13.09 ЮЗ 1 н/о н/о +22.8 +22.8 100 +31 +31 очень
душно
1012.3 1011.9
18 13.09 штиль 0 н/о н/о +22.1 +22.1 100 +29 +29 очень
душно
1013.9 1013.5
21 13.09 штиль 0 н/о н/о +28.1 +28.1 100 +47 +47 опасность
перегрева
1014.1 1013.7
00 14.09 СВ 1 н/о н/о +29.9 +29.9 100 +55 +55 опасность
перегрева
1012.3 1011.9 +19.6
03 14.09 СВ 1 н/о н/о +29.9 +29.9 100 +55 +55 опасность
перегрева
1010.8 1010.4
06 14.09 штиль 0 н/о н/о +25.1 +25.1 100 +36 +36 очень
душно
1012.1 1011.7
09 14.09 штиль 0 н/о н/о +23.9 +23.9 100 +33 +33 очень
душно
1013.6 1013.2
12 14.09 штиль 0 н/о н/о +23.1 +23.1 100 +32 +32 очень
душно
1012.3 1011.9 +30.1
15 14.09 СВ 1 н/о н/о +23.0 +23.0 100 +32 +32 очень
душно
1010.7 1010.3
18 14.09 штиль 0 н/о н/о +22.8 +22.8 100 +31 +31 очень
душно
1012.3 1011.9
21 14.09 СВ 2 н/о н/о +30.4 +30.4 100 +58 +58 опасность
перегрева
1012.9 1012.5
00 15.09 СВ 1 н/о н/о +31.6 +31.6 100 +64 +64 опасность
перегрева
1010.9 1010.5 +21.9
03 15.09 СВ 2 н/о н/о +31.3 +31.3 100 +62 +62 опасность
перегрева
1010.2 1009.8
06 15.09 СВ 1 н/о н/о +26.2 +26.2 100 +39 +39 очень
душно
1011.9 1011.5
09 15.09 СВ 1 н/о н/о +25.0 +25.0 100 +36 +36 очень
душно
1012.7 1012.3
12 15.09 В 1 н/о н/о +24.5 +24.5 100 +34 +34 очень
душно
1011.9 1011.5 +32.3
15 15.09 СВ 1 н/о н/о +23.9 +23.9 100 +33 +33 очень
душно
1010.7 1010.3
18 15.09 СВ 1 н/о н/о +24.1 +24.1 100 +33 +33 очень
душно
1011.4 1011.0
21 15.09 СВ 1 н/о н/о +29.1 +29.1 100 +51 +51 опасность
перегрева
1013.4 1013.0
00 16.09 В 2 н/о н/о +28.7 +28.7 100 +49 +49 опасность
перегрева
1011.4 1011.0 +22.5 0.5
03 16.09 СВ 2 н/о н/о +27.8 +27.8 100 +45 +45 опасность
перегрева
1009.8 1009.4
06 16.09 СВ 1 н/о н/о +25.5 +25.5 100 +37 +37 очень
душно
1011.4 1011.0
09 16.09 СВ 1 н/о н/о +24.3 +24.3 100 +34 +34 очень
душно
1013.1 1012.7
12 16.09 штиль 0 н/о н/о +23.1 +23.1 100 +32 +32 очень
душно
1012.5 1012.1 +33.5
15 16.09 штиль 0 н/о н/о +22.7 +22.7 100 +31 +31 очень
душно
1011.6 1011.2
18 16.09 СВ 1 н/о н/о +22.9 +22.9 100 +32 +32 очень
душно
1012.7 1012.3
21 16.09 В 1 н/о н/о +28.8 +28.8 100 +50 +50 опасность
перегрева
1013.1 1012.7
00 17.09 В 1 н/о н/о +30.8 +30.8 100 +60 +60 опасность
перегрева
1011.6 1011.2 +23.5
03 17.09 СВ 1 н/о н/о +28.6 +28.6 100 +49 +49 опасность
перегрева
1010.5 1010.1
06 17.09 СВ 1 н/о н/о +23.7 +23.7 100 +32 +32 очень
душно
1011.8 1011.4
09 17.09 СВ 1 н/о н/о +24.0 +24.0 100 +33 +33 очень
душно
1012.2 1011.8
12 17.09 СВ 1 н/о н/о +23.3 +23.3 100 +33 +33 очень
душно
1011.7 1011.3 +30.0
15 17.09 СВ 1 н/о н/о +23.0 +23.0 100 +32 +32 очень
душно
1010.6 1010.2 0.5
18 17.09 штиль 0 н/о н/о +22.4 +22.4 100 +30 +30 очень
душно
1011.7 1011.3
21 17.09 СВ 1 н/о н/о +27.1 +27.1 100 +43 +43 опасность
перегрева
1012.7 1012.3 0.5
00 18.09 В 1 н/о н/о +29.6 +29.6 100 +53 +53 опасность
перегрева
1010.7 1010.3 +22.3
03 18.09 СВ 1 н/о н/о +27.7 +27.7 100 +45 +45 опасность
перегрева
1009.5 1009.1
06 18.09 СВ 1 н/о н/о +23.8 +23.8 100 +32 +32 очень
душно
1010.8 1010.4
09 18.09 СВ 1 н/о н/о +23.1 +23.1 100 +32 +32 очень
душно
1011.9 1011.5
12 18.09 СВ 1 н/о н/о +23.3 +23.3 100 +33 +33 очень
душно
1010.4 1010.0 +31.7
15 18.09 СВ 1 н/о н/о +23.1 +23.1 100 +32 +32 очень
душно
1009.2 1008.8
18 18.09 штиль 0 н/о н/о +23.1 +23.1 100 +32 +32 очень
душно
1010.6 1010.2 0.5
21 18.09 В 1 н/о н/о +28.5 +28.5 100 +48 +48 опасность
перегрева
1011.4 1011.0
00 19.09 В 1 н/о н/о +29.4 +29.4 100 +53 +53 опасность
перегрева
1009.5 1009.1 +22.0
03 19.09 В 1 н/о н/о +25.9 +25.9 100 +38 +38 очень
душно
1008.7 1008.3
06 19.09 штиль 0 н/о н/о +24.1 +24.1 100 +33 +33 очень
душно
1009.8 1009.4
09 19.09 штиль 0 н/о н/о +23.4 +23.4 100 +33 +33 очень
душно
1010.7 1010.3 5
12 19.09 С 1 н/о н/о +23.1 +23.1 100 +32 +32 очень
душно
1010.6 1010.2 +30.1 0.5
15 19.09 В 1 н/о н/о +22.9 +22.9 100 +32 +32 очень
душно
1009.1 1008.7 0.5
18 19.09 штиль 0 н/о н/о +22.4 +22.4 100 +30 +30 очень
душно
1011.4 1011.0
21 19.09 штиль 0 н/о н/о +23.3 +23.3 100 +33 +33 очень
душно
1011.7 1011.3 0.5
00 20.09 Ю 4 н/о н/о +27.8 +27.8 100 +45 +45 опасность
перегрева
1007.8 1007.4 +22.8 0.5

 

Местоположение метеостанции Togitogiga (Самоа): широта -14.03 долгота -171.77 высота над уровнем моря 4 м.

В архиве по умолчанию представлена погода в Togitogiga за последнюю неделю. Архивные данные за месяц целиком и за предыдущие месяцы, начиная с января 2011 года, Вы можете получить, выбрав интересующий диапазон дат из раскрывающегося списка и нажав кнопку "Ввод!".


*Определитесь, кто Вы:
робот инопланетянин человек

Внимание! Время в таблицах - всемирное. Для получения местного времени необходимо прибавить поправку, которая в Togitogiga равна 13 ч.

Смотрите также архив погоды в соседних городах и на ближайших метеорологических станциях:

Погода в Le Mafa (Самоа) (20 км)
Погода в Apia (Американское Самоа) (27 км)
Погода в Lufi-Lufi (Самоа) (28 км)
Погода в Faleolo Int East (Самоа) (33 км)
Погода в Faleolo Int Airport (Американское Самоа) (35 км)
Погода в Faleolo Int Airport (Самоа) (35 км)
Погода в Manono (Самоа) (42 км)
Погода в Maota Int Airport (Самоа) (62 км)
Погода в Le Piu Tai (Самоа) (92 км)
Погода в Mount Talu (Самоа) (115 км)

Пояснения к столбцам:

Ветер - указаны скорость ветра в м/с - средняя за 10 мин, порывы в срок и между сроками (в фигурных скобках) и направление, откуда дует ветер: С - северный, СВ - северо-восточный, В - восточный, ЮВ - юго-восточный, Ю - южный, ЮЗ - юго-западный, З - западный, СЗ - северо-западный.
Видимость - горизонтальная дальность видимости в метрах или километрах. При видимости от 1 до 10 км при отсутствии осадков обычно наблюдается дымка, при ухудшении видимости до 1 км и менее - туман. В сухую погоду видимость может ухудшаться дымом, пылью или мглою.
Явления - указаны атмосферные явления, наблюдавшиеся в срок или в последний час перед сроком; фигурными скобками обозначены явления, наблюдавшиеся между сроками (за 1-3 часа до срока); квадратными скобками обозначены град или гололедные отложения с указанием их диаметра в мм.
Облачность - указаны через наклонную черту общая и нижняя облачность в баллах и высота нижней границы облаков в метрах; квадратными скобками обозначены формы облаков: Ci - перистые, Cs - перисто-слоистые, Cc - перисто-кучевые, Ac - высококучевые, As - высокослоистые, Sc - слоисто-кучевые, Ns - слоисто-дождевые, Cu - кучевые, Cb - кучево-дождевые. Подробнее классификацию облаков см. в Атласе облаков (PDF).
T - Температура воздуха - температура, измеренная на высоте 2 м над землей.
Td - Температура точки росы - температура, при понижении до которой содержащийся в воздухе водяной пар достигнет насыщения.
f - Относительная влажность воздуха - влажноcть воздуха, измеренная на высоте 2 м над землей.
Te - Эффективная температура - температура, которую ощущает одетый по сезону человек в тени. Характеристика душности погоды. При расчете учитывается влияние влажности воздуха и скорости ветра на теплоощущения человека.
Tes - Эффективная температура на солнце - температура, которую ощущает человек, с поправкой на солнечный нагрев. Характеристика знойности погоды. Зависит от высоты солнца над горизонтом, облачности и скорости ветра. Ночью, в пасмурную погоду, а также при ветре 12 м/с и более поправка равна нулю.
P - Атмосферное давление - приведенное к уровню моря атмосферное давление.
Po - Атмосферное давление - измеренное на уровне метеостанции атмосферное давление.
Tmin - Минимальная температура - минимум температуры воздуха на высоте 2 м над землей.
Tmax - Максимальная температура - максимум температуры воздуха на высоте 2 м над землей.
R - Количество осадков - Количество выпавших осадков за период времени, мм. При наведении курсора мыши на число - период времени, за который выпало указанное количество осадков.
R24 - Количество осадков - Количество выпавших осадков за 24 часа, мм.
S - Снежный покров - Высота снежного покрова, см. При наведении курсора мыши на число - состояние снежного покрова и степень покрытия местности в баллах.